Bainbridge, GA

1:15 AM EDT on August 18, 2017 (GMT -0400)
Decatur County Industrial

Weather History for KBGE - January, 2014

Change the Weather History Date:

Friday, January 24, 2014

  Actual Average (KTLH) Record (KTLH)
Temperature  
Mean Temperature 38 °F -  
Max Temperature 42 °F 63 °F 80 °F (1929)
Min Temperature 33 °F 39 °F 17 °F (1963)
Degree Days  
Heating Degree Days 28    
Moisture  
Dew Point 10 °F    
Average Humidity 32    
Maximum Humidity 45    
Minimum Humidity 21    
Precipitation  
Precipitation 0.00 in - - ()
Sea Level Pressure  
Sea Level Pressure 30.49 in    
Wind  
Wind Speed 9 mph (NNE)    
Max Wind Speed 15 mph    
Max Gust Speed 22 mph    
Visibility 10 miles    
Events Rain    
Averages and records for this station are not official NWS values.
T = Trace of Precipitation, MM = Missing Value Source: NWS Daily Summary

Daily Weather History Graph

Daily Weather History Graph

Search for Another Location

Airport or City:

Trip Planner

Search our weather history database for the weather conditions in past years. The results will help you decide how hot, cold, wet, or windy it might be!

Date:

Astronomy

Jan. 24, 2014 Rise Set
Actual Time 7:34 AM EST 6:07 PM EST
Civil Twilight 7:08 AM EST 6:32 PM EST
Nautical Twilight 6:39 AM EST 7:02 PM EST
Astronomical Twilight 6:10 AM EST 7:30 PM EST
Moon 1:06 AM EST (1/24) 12:21 PM EST (1/24)
Length of Visible Light 11h 23m
Length of Day
10h 32m
Last Quarter, 45% of the Moon is Illuminated
Jan 24
Last Quarter
Jan 30
New
Feb 6
First Quarter
Feb 14
Full
Feb 22
Last Quarter

Hourly Weather History & Observations

Time (EST) Temp. Windchill Dew Point Humidity Pressure Visibility Wind Dir Wind Speed Gust Speed Precip Events Conditions
12:15 AM 41.0 °F 34.7 °F 21.2 °F 45% 30.48 in 10.0 mi NNW 10.4 mph - N/A   Clear
12:35 AM 41.0 °F 35.2 °F 21.2 °F 45% 30.48 in 10.0 mi NNW 9.2 mph - N/A   Clear
12:55 AM 39.2 °F 33.6 °F 19.4 °F 45% 30.49 in 10.0 mi North 8.1 mph - N/A   Clear
1:15 AM 39.2 °F 34.2 °F 19.4 °F 45% 30.48 in 10.0 mi North 6.9 mph - N/A   Clear
1:35 AM 39.2 °F 33.6 °F 19.4 °F 45% 30.48 in 10.0 mi North 8.1 mph - N/A   Clear
1:55 AM 39.2 °F 33.6 °F 19.4 °F 45% 30.50 in 10.0 mi NNW 8.1 mph - N/A   Clear
2:15 AM 41.0 °F 34.7 °F 19.4 °F 42% 30.52 in 10.0 mi NNW 10.4 mph 18.4 mph N/A   Scattered Clouds
2:35 AM 41.0 °F 33.5 °F 17.6 °F 39% 30.52 in 10.0 mi NNW 13.8 mph - N/A   Mostly Cloudy
2:55 AM 39.2 °F 31.2 °F 17.6 °F 42% 30.53 in 10.0 mi North 13.8 mph 20.7 mph N/A   Overcast
3:15 AM 39.2 °F 31.6 °F 15.8 °F 39% 30.54 in 10.0 mi NNW 12.7 mph 17.3 mph N/A   Overcast
3:35 AM 37.4 °F 30.3 °F 15.8 °F 41% 30.55 in 10.0 mi North 10.4 mph - N/A   Overcast
3:55 AM 37.4 °F 28.9 °F 14.0 °F 38% 30.54 in 10.0 mi North 13.8 mph 21.9 mph N/A   Overcast
4:15 AM 37.4 °F 29.3 °F 12.2 °F 36% 30.55 in 10.0 mi NNW 12.7 mph - N/A   Overcast
4:35 AM 37.4 °F 30.3 °F 14.0 °F 38% 30.55 in 10.0 mi North 10.4 mph - N/A   Scattered Clouds
4:55 AM 37.4 °F 29.8 °F 14.0 °F 38% 30.55 in 10.0 mi North 11.5 mph - N/A   Clear
5:15 AM 37.4 °F 29.3 °F 14.0 °F 38% 30.55 in 10.0 mi North 12.7 mph - N/A   Scattered Clouds
5:35 AM 35.6 °F 28.0 °F 14.0 °F 41% 30.56 in 10.0 mi North 10.4 mph - N/A   Scattered Clouds
5:55 AM 35.6 °F 27.5 °F 12.2 °F 38% 30.56 in 10.0 mi NNE 11.5 mph - N/A   Scattered Clouds
6:15 AM 35.6 °F 28.6 °F 12.2 °F 38% 30.56 in 10.0 mi North 9.2 mph - N/A   Scattered Clouds
6:35 AM 35.6 °F 27.1 °F 8.6 °F 33% 30.57 in 10.0 mi North 12.7 mph 18.4 mph N/A   Clear
6:55 AM 33.8 °F 25.8 °F 8.6 °F 35% 30.58 in 10.0 mi North 10.4 mph - N/A   Clear
7:15 AM 33.8 °F 26.4 °F 5.0 °F 30% 30.58 in 10.0 mi North 9.2 mph 18.4 mph N/A   Clear
7:35 AM 33.8 °F 27.0 °F 5.0 °F 30% 30.57 in 10.0 mi North 8.1 mph - N/A   Clear
7:55 AM 33.8 °F 25.8 °F 5.0 °F 30% 30.59 in 10.0 mi North 10.4 mph - N/A   Clear
8:15 AM 33.8 °F 27.0 °F 5.0 °F 30% 30.59 in 10.0 mi North 8.1 mph - N/A   Clear
8:35 AM 33.8 °F 26.4 °F 6.8 °F 32% 30.59 in 10.0 mi North 9.2 mph 17.3 mph N/A   Clear
8:55 AM 33.8 °F 25.8 °F 6.8 °F 32% 30.59 in 10.0 mi North 10.4 mph - N/A   Clear
9:15 AM 33.8 °F 25.3 °F 5.0 °F 30% 30.59 in 10.0 mi NNE 11.5 mph 18.4 mph N/A   Clear
9:35 AM 33.8 °F 25.3 °F 5.0 °F 30% 30.59 in 10.0 mi NNE 11.5 mph - N/A   Clear
9:55 AM 35.6 °F 28.0 °F 5.0 °F 28% 30.60 in 10.0 mi North 10.4 mph - N/A   Clear
10:15 AM 35.6 °F 28.6 °F 6.8 °F 30% 30.59 in 10.0 mi North 9.2 mph - N/A   Clear
10:35 AM 37.4 °F 30.3 °F 6.8 °F 28% 30.59 in 10.0 mi NNE 10.4 mph - N/A   Clear
10:55 AM 37.4 °F 28.5 °F 5.0 °F 26% 30.59 in 10.0 mi ENE 15.0 mph - N/A   Clear
11:15 AM 37.4 °F 29.3 °F 5.0 °F 26% 30.58 in 10.0 mi North 12.7 mph 16.1 mph N/A   Clear
11:35 AM 39.2 °F 33.6 °F 6.8 °F 26% 30.57 in 10.0 mi NNE 8.1 mph - N/A   Clear
11:55 AM 41.0 °F 34.7 °F 5.0 °F 23% 30.56 in 10.0 mi NE 10.4 mph - N/A   Clear
12:15 PM 41.0 °F 35.2 °F 5.0 °F 23% 30.55 in 10.0 mi NNE 9.2 mph 18.4 mph N/A   Clear
12:35 PM 41.0 °F 35.2 °F 3.2 °F 21% 30.54 in 10.0 mi NE 9.2 mph - N/A   Clear
12:55 PM 41.0 °F 34.7 °F 5.0 °F 23% 30.52 in 10.0 mi NE 10.4 mph - N/A   Clear
1:15 PM 41.0 °F 35.8 °F 5.0 °F 23% 30.49 in 10.0 mi East 8.1 mph - N/A   Clear
1:35 PM 42.8 °F 40.1 °F 5.0 °F 21% 30.49 in 10.0 mi ENE 4.6 mph - N/A   Clear
1:55 PM 41.0 °F 37.1 °F 5.0 °F 23% 30.47 in 10.0 mi ENE 5.8 mph - N/A   Clear
2:15 PM 42.8 °F 38.0 °F 5.0 °F 21% 30.46 in 10.0 mi NNE 8.1 mph - N/A   Clear
2:35 PM 42.8 °F 38.0 °F 6.8 °F 23% 30.46 in 10.0 mi NE 8.1 mph - N/A   Clear
2:55 PM 42.8 °F 38.6 °F 6.8 °F 23% 30.45 in 10.0 mi NE 6.9 mph - N/A   Clear
3:15 PM 42.8 °F 38.0 °F 6.8 °F 23% 30.44 in 10.0 mi East 8.1 mph - N/A   Clear
3:35 PM 42.8 °F 40.1 °F 5.0 °F 21% 30.44 in 10.0 mi ENE 4.6 mph - N/A   Clear
3:55 PM 42.8 °F 39.3 °F 5.0 °F 21% 30.43 in 10.0 mi ENE 5.8 mph - N/A   Clear
4:15 PM 42.8 °F 41.1 °F 6.8 °F 23% 30.43 in 10.0 mi North 3.5 mph - N/A   Clear
4:35 PM 42.8 °F 39.3 °F 6.8 °F 23% 30.43 in 10.0 mi NE 5.8 mph - N/A   Clear
4:55 PM 41.0 °F 35.8 °F 8.6 °F 26% 30.42 in 10.0 mi NNE 8.1 mph - N/A   Clear
5:15 PM 41.0 °F 36.4 °F 6.8 °F 24% 30.42 in 10.0 mi NNE 6.9 mph - N/A   Scattered Clouds
5:35 PM 41.0 °F 36.4 °F 8.6 °F 26% 30.42 in 10.0 mi NNE 6.9 mph - N/A   Mostly Cloudy
5:55 PM 41.0 °F 37.1 °F 8.6 °F 26% 30.42 in 10.0 mi North 5.8 mph - N/A   Overcast
6:15 PM 41.0 °F 38.0 °F 8.6 °F 26% 30.41 in 10.0 mi NNE 4.6 mph - N/A   Overcast
6:35 PM 41.0 °F 39.0 °F 10.4 °F 29% 30.41 in 10.0 mi NE 3.5 mph - N/A   Mostly Cloudy
6:55 PM 41.0 °F 39.0 °F 10.4 °F 29% 30.41 in 10.0 mi NE 3.5 mph - N/A   Mostly Cloudy
7:15 PM 41.0 °F - 10.4 °F 29% 30.42 in 10.0 mi Calm Calm - N/A   Overcast
7:35 PM 41.0 °F - 10.4 °F 29% 30.41 in 10.0 mi Calm Calm - N/A   Overcast
7:55 PM 41.0 °F - 10.4 °F 29% 30.42 in 10.0 mi Calm Calm - N/A   Overcast
8:15 PM 41.0 °F 38.0 °F 12.2 °F 31% 30.41 in 10.0 mi NNE 4.6 mph - N/A   Overcast
8:35 PM 41.0 °F - 12.2 °F 31% 30.41 in 10.0 mi Calm Calm - N/A   Overcast
8:55 PM 41.0 °F 39.0 °F 12.2 °F 31% 30.41 in 10.0 mi NNE 3.5 mph - N/A   Overcast
9:15 PM 41.0 °F - 12.2 °F 31% 30.40 in 10.0 mi Calm Calm - N/A   Overcast
9:35 PM 41.0 °F - 14.0 °F 33% 30.41 in 10.0 mi Calm Calm - N/A   Unknown
9:55 PM 39.2 °F - 14.0 °F 36% 30.40 in 10.0 mi Calm Calm - N/A   Mostly Cloudy
10:15 PM 39.2 °F - 14.0 °F 36% 30.40 in 10.0 mi Calm Calm - N/A   Scattered Clouds
10:35 PM 39.2 °F - 14.0 °F 36% 30.38 in 10.0 mi Calm Calm - N/A Rain Light Rain
10:55 PM 39.2 °F - 14.0 °F 36% 30.37 in 10.0 mi Calm Calm - N/A   Unknown
11:15 PM 39.2 °F - 12.2 °F 33% 30.36 in 10.0 mi Calm Calm - N/A   Scattered Clouds
11:35 PM 39.2 °F - 19.4 °F 45% 30.35 in 10.0 mi Calm Calm - N/A   Mostly Cloudy
11:55 PM 39.2 °F - 17.6 °F 42% 30.33 in 10.0 mi Calm Calm - N/A   Mostly Cloudy